Simultaneous Nadir Overpasses (SNOs) Predictions

Prediction of SNOs between AQUA and METOP-B Satellite Orbit:

Table of predicted SNOs for the next 14.0 days since TLE Epoch: 3/22/2013
Index Date (AQUA) Time (AQUA) Lat,Lon (AQUA) SZA (AQUA ) Date (METOP-B) Time (METOP-B) Lat,Lon (METOP-B) SZA (METOP-B ) Distance(km) Time Diff (sec)
1 03/25/2013 03:22:06 -73.68, -55.97 108.14 03/25/2013 03:20:56 -73.66, -56.05 108.14 3.16 70
2 03/25/2013 04:11:35 73.74, 111.52 71.92 03/25/2013 04:11:33 73.77, 111.56 71.95 3.39 2
3 03/25/2013 05:01:02 -73.83, -81.02 108.00 03/25/2013 05:02:14 -73.84, -80.97 108.01 1.97 72
4 03/27/2013 22:56:22 -73.68, 10.46 109.24 03/27/2013 22:55:18 -73.68, 10.42 109.23 1.15 64
5 03/27/2013 23:45:51 73.75, 177.94 70.82 03/27/2013 23:45:56 73.74, 177.89 70.81 2.02 5
6 03/28/2013 00:35:22 -74.04, -15.06 108.89 03/28/2013 00:36:33 -74.01, -14.14 108.96 28.40 71
7 03/30/2013 18:30:38 -73.71, 76.84 110.32 03/30/2013 18:29:40 -73.70, 76.88 110.32 1.50 58
8 03/30/2013 19:20:06 73.73,-115.57 69.70 03/30/2013 19:20:18 73.75,-115.67 69.72 3.57 12
9 03/30/2013 20:09:42 -74.27, 50.84 109.74 03/30/2013 20:10:50 -74.27, 52.93 109.82 62.97 68
10 04/02/2013 14:04:52 -73.71, 143.29 111.41 04/02/2013 14:04:01 -73.71, 143.31 111.40 0.78 51
11 04/02/2013 14:54:20 73.74, -49.14 68.61 04/02/2013 14:54:39 73.75, -49.25 68.63 3.85 19
12 04/02/2013 15:44:01 -74.53, 116.67 110.55 04/02/2013 15:45:06 -74.52, 120.00 110.67 98.75 65
13 04/05/2013 09:39:07 -73.73,-150.32 112.46 04/05/2013 09:38:23 -73.71,-150.27 112.48 2.91 44
14 04/05/2013 10:28:35 73.77, 17.25 67.56 04/05/2013 10:29:01 73.75, 17.16 67.55 3.21 26




NCC Satellite Simultaneous Nadir Overpasses (SNOs) Prediction Service
